User: anonymous
Location: Unspecified
(0.0000°N, 0.0000°E)
Time: 03:53:48
(UTC+00:00)
Language:

OPTUS 1C - Orbit

View from above orbital plane
View from above orbital plane
View from above satellite
View from above satellite

Ground track
Ground track

The orbit data is extracted from the following two-line orbital elements,

1 27831U 03028B   14261.42474502 -.00000172  00000-0  00000+0 0  2090
2 27831 000.0275 139.4751 0004669 040.8018 125.8890 01.00271562 41308
Epoch (UTC): 18 September 2014 10:11:37
Eccentricity: 0.0004669
inclination: 0.0275°
perigee height: 35766 km
apogee height: 35806 km
right ascension of ascending node: 139.4751°
argument of perigee: 40.8018°
revolutions per day: 1.00271562
mean anomaly at epoch: 125.8890°
orbit number at epoch: 4130

The dashed part of the orbit path shows where the satellite is in the earth's shadow,  

DLR